Lapse_Rate
5.0 5.2 5.8 6.8 6.5 6.6 6.5 6.5 6.5 6.5 6.5 7.5 7.7 7.1 6.6 7.2 6.6 6.5 7.2 6.4 7.0 7.1 7.0 6.9 5.9 5.6 5.7 5.7 6.2 5.9 5.9 6.2 6.5 6.5 6.3 6.2 6.0 6.2 6.6 6.9 6.9 6.9 6.4 6.8 6.7 7.1 6.8 6.7 6.6
5.6 5.6 6.5 7.2 6.5 6.5 6.5 6.5 6.5 6.5 7.2 7.7 7.6 7.5 7.1 6.6 8.1 6.9 7.0 6.7 7.2 7.1 7.4 7.1 5.2 6.0 6.1 6.1 6.1 6.1 6.1 6.3 6.3 6.4 6.1 6.1 6.2 6.4 6.7 7.1 7.1 6.6 6.4 6.6 6.6 6.6 6.7 6.5 6.2
6.1 6.2 6.6 6.5 6.5 6.5 6.5 6.5 6.5 6.9 7.5 7.5 7.2 7.8 7.5 7.1 7.4 8.1 7.0 7.2 7.2 7.0 6.9 5.8 5.4 5.7 6.2 6.3 6.2 6.2 6.4 6.3 6.4 6.2 6.3 6.4 6.4 6.4 6.7 6.8 6.6 6.6 6.6 6.7 6.8 6.7 6.8 6.9 6.8
6.7 5.9 6.9 6.5 6.5 6.5 6.5 6.5 6.9 6.8 7.4 7.6 7.6 6.8 8.1 8.8 8.5 6.6 7.1 7.2 7.8 7.2 7.1 5.7 5.7 5.8 6.7 6.3 6.6 6.3 6.4 6.5 6.6 6.5 6.4 6.4 6.4 6.7 6.8 6.7 6.5 6.6 6.7 6.9 7.1 7.0 7.0 7.1 7.1
7.1 6.5 6.5 6.5 6.5 6.5 6.6 6.8 7.1 6.5 6.9 7.2 7.5 6.7 7.3 7.9 7.2 7.4 7.3 7.8 7.4 7.5 7.8 7.6 5.9 6.0 6.2 6.4 6.3 6.5 6.4 6.4 6.5 6.3 6.5 6.5 6.6 6.7 6.8 6.6 6.6 6.6 6.6 6.9 7.0 7.0 6.9 6.9 7.0
6.3 6.7 6.5 6.5 6.4 6.5 6.7 7.1 7.1 6.9 7.1 7.3 7.2 7.3 7.5 7.5 7.6 7.8 8.5 7.6 7.4 7.5 8.0 7.6 6.2 6.4 6.2 6.4 6.2 6.5 6.5 6.4 6.5 6.4 6.4 6.6 6.6 6.6 6.8 6.9 6.8 6.8 6.9 7.0 7.0 6.8 6.9 6.7 6.3
6.6 6.5 6.5 6.5 6.5 6.5 6.5 7.5 6.9 6.9 7.0 7.0 7.9 6.6 7.7 7.7 8.5 7.9 8.5 7.6 7.1 7.1 8.2 7.5 7.6 6.9 6.4 6.4 6.3 6.6 6.4 6.4 6.5 6.4 6.3 6.5 6.8 6.8 7.1 6.9 6.9 6.9 6.9 6.9 6.9 6.8 6.9 6.6 6.4
6.9 6.6 6.5 6.5 6.5 6.5 6.8 6.9 7.5 7.3 6.8 8.4 8.3 6.7 6.9 7.8 7.8 7.5 7.8 7.5 7.1 7.3 8.3 7.6 7.3 7.0 7.8 7.4 6.8 6.7 6.5 6.8 6.6 6.5 6.3 6.2 6.9 7.2 7.1 6.9 6.7 6.8 6.5 6.7 6.9 6.8 6.7 6.7 6.6
7.4 6.5 6.5 6.5 6.5 6.5 7.2 6.6 7.7 8.1 7.7 7.8 8.1 8.1 8.5 8.6 8.7 8.6 7.4 7.3 6.9 7.0 7.9 8.0 7.2 6.9 7.0 7.3 7.5 7.3 6.9 6.7 6.4 5.8 5.3 6.2 7.0 7.2 8.2 7.0 6.5 6.5 6.8 6.9 6.9 6.7 6.6 6.5 6.3
6.9 6.5 6.5 6.6 6.6 6.5 7.0 7.0 7.2 7.1 7.2 7.4 7.8 8.3 8.5 8.2 8.5 8.4 7.7 6.1 6.8 6.2 7.1 7.3 6.6 7.0 7.3 7.6 7.3 6.8 6.9 6.5 6.3 5.6 5.8 6.5 6.6 7.1 8.2 6.6 6.3 6.6 6.6 6.4 6.3 6.7 6.2 6.8 6.7
6.8 6.4 6.5 6.8 7.2 7.4 7.1 7.0 7.6 7.0 6.5 7.4 7.5 7.6 8.2 8.4 8.6 8.4 8.5 6.4 6.7 6.4 7.1 6.7 6.1 6.1 6.3 6.3 7.0 7.1 6.9 6.5 6.2 5.8 6.1 5.8 6.0 6.1 6.2 6.0 6.6 6.9 5.8 7.4 7.0 7.0 6.9 6.6 7.0
6.5 6.9 6.9 7.1 7.6 7.2 6.7 7.3 7.1 7.2 7.1 8.2 8.2 7.8 8.2 8.3 8.4 8.4 8.4 6.9 6.3 6.4 6.6 6.3 6.3 6.0 6.5 7.0 7.5 7.0 7.1 6.9 6.9 5.9 5.5 6.0 6.6 6.0 6.1 6.6 6.4 6.4 6.7 6.4 6.0 6.8 6.0 6.1 6.5
6.6 6.7 7.1 7.5 7.5 7.2 7.3 6.9 6.9 7.1 7.9 8.3 8.3 8.1 8.2 8.3 8.3 8.1 8.0 7.0 6.8 6.6 6.4 6.5 6.1 6.0 5.9 6.3 6.7 6.9 6.8 7.1 6.4 6.0 5.7 6.3 6.7 6.1 6.1 6.1 6.7 6.5 6.2 6.2 6.4 6.7 6.7 6.4 6.8
7.1 7.0 7.0 7.4 7.3 7.3 6.7 6.9 7.1 6.9 8.0 8.0 8.0 8.0 8.2 8.1 8.1 7.3 6.9 6.8 6.8 6.9 6.7 6.7 6.7 5.9 5.9 6.3 6.1 6.6 6.6 6.5 6.9 6.7 6.4 5.6 6.7 6.2 6.6 6.6 6.9 7.0 6.6 6.4 6.3 6.7 7.1 7.3 8.0
7.2 6.6 6.5 6.9 7.0 6.6 7.1 6.5 6.5 7.0 7.8 7.8 8.0 8.1 8.2 8.3 8.6 8.0 7.2 7.3 7.0 7.0 6.8 6.8 6.7 6.3 6.1 6.4 6.3 6.6 6.8 6.9 6.9 6.9 5.9 5.9 6.0 5.8 6.0 7.1 6.9 6.4 6.1 6.1 6.5 7.2 7.5 8.5 8.6
6.5 6.5 6.5 6.5 6.8 6.6 6.5 6.5 6.7 5.9 7.3 7.5 7.9 8.0 8.1 8.2 8.3 7.8 7.3 7.9 7.2 7.3 6.8 6.8 7.7 7.0 6.4 6.5 6.4 6.9 6.9 7.0 6.8 6.6 6.4 6.0 5.7 5.7 6.1 7.4 7.3 6.2 6.3 6.9 7.5 7.9 8.3 8.4 8.5
6.5 6.5 6.5 6.5 6.5 6.5 6.5 6.5 6.5 6.4 7.2 7.5 7.8 8.0 8.1 8.2 8.4 7.7 7.8 7.6 7.3 7.0 7.1 7.1 7.0 6.9 6.6 6.2 6.6 6.6 6.2 6.8 6.4 6.4 6.6 5.9 6.1 6.1 6.7 7.2 6.9 6.5 7.0 7.3 7.7 7.7 7.4 7.9 8.1
6.5 6.5 6.5 6.5 6.5 6.5 6.5 6.5 6.5 6.8 7.4 7.3 7.6 7.9 8.0 8.1 8.2 7.8 7.6 7.9 7.5 7.0 6.9 7.1 7.3 6.8 6.4 6.3 5.8 6.3 6.7 6.3 6.0 6.5 6.6 6.0 6.4 6.1 6.6 6.9 6.5 6.8 7.5 7.5 7.4 6.9 7.1 7.2 7.5
6.5 6.5 6.5 6.5 6.5 6.5 6.5 6.5 6.5 7.0 7.2 7.2 7.5 7.7 7.7 7.4 8.5 8.2 7.7 7.6 7.6 7.2 6.7 6.7 6.8 6.1 6.2 6.2 6.5 6.7 7.2 6.5 6.6 6.7 6.1 6.2 6.2 6.0 6.3 7.1 6.7 6.8 7.4 7.1 6.9 7.3 7.2 8.2 7.2
6.5 6.5 6.5 6.5 6.5 6.5 6.5 6.5 6.5 6.8 6.9 7.3 7.4 7.6 7.6 8.2 8.4 8.3 7.4 7.3 7.4 7.0 6.7 6.3 6.6 5.7 6.0 6.5 6.6 7.0 6.7 7.0 7.0 6.4 6.1 6.2 6.2 6.2 6.5 6.2 6.9 6.8 7.4 6.7 6.8 6.6 7.9 7.8 6.6
6.5 6.5 6.5 6.5 6.5 6.5 6.5 6.5 6.5 6.6 7.0 7.3 7.5 7.9 8.0 8.1 8.2 8.2 8.0 6.9 7.0 6.8 6.2 6.1 6.2 5.7 6.0 6.3 6.2 6.0 5.9 6.1 6.7 6.5 7.0 6.7 6.6 6.5 6.2 6.2 6.7 6.6 6.9 7.8 6.9 6.8 6.9 8.0 6.7
6.5 6.5 6.5 6.5 6.5 6.5 6.5 6.5 6.5 6.5 6.5 6.7 7.2 7.7 8.0 8.1 8.4 8.4 8.0 6.9 6.6 6.5 6.3 6.0 6.0 5.6 5.9 5.9 6.9 6.4 6.9 6.7 7.6 7.5 7.3 6.9 6.5 6.8 6.6 6.2 6.3 6.2 6.7 6.8 7.1 7.0 7.0 6.9 7.3
6.5 6.5 6.5 6.5 6.5 6.5 6.5 6.5 6.6 6.5 6.5 6.5 7.0 7.4 7.9 8.2 8.2 8.0 7.9 6.6 6.6 6.3 6.3 6.1 5.9 5.6 6.2 6.0 6.5 7.5 6.8 7.6 7.3 7.1 6.5 6.4 6.3 6.5 6.9 6.3 6.2 6.4 7.1 6.7 6.9 6.7 6.7 7.2 7.4
6.5 6.5 6.5 6.5 6.5 6.5 6.5 6.5 6.5 6.5 6.5 6.6 6.9 7.3 7.5 8.1 8.2 7.3 4.1 5.2 5.8 6.4 6.3 5.9 5.6 5.5 5.8 5.9 6.1 6.3 6.6 6.5 6.8 6.8 7.1 7.2 7.5 7.3 6.6 6.7 6.2 6.2 6.5 6.6 7.0 6.4 6.6 6.9 6.8
6.5 6.5 6.5 6.5 6.5 6.5 6.5 6.5 6.5 6.5 6.5 6.6 6.7 7.3 7.6 8.0 7.8 7.9 5.8 5.2 5.6 6.2 4.9 3.6 5.6 5.6 5.6 5.9 6.3 6.3 6.3 6.5 7.0 7.3 7.2 6.9 7.1 7.1 7.0 6.6 6.2 6.9 6.1 6.4 6.3 6.6 6.7 6.7 7.4
6.5 6.5 6.5 6.5 6.5 6.5 6.5 6.5 6.5 6.5 7.0 7.4 7.4 7.7 7.8 7.9 7.8 7.9 7.1 4.5 2.5 3.4 5.7 5.7 6.0 5.7 5.9 5.9 5.9 6.1 6.2 7.3 7.6 6.9 6.9 7.0 6.7 7.2 7.4 7.2 7.2 6.5 6.4 6.4 6.3 7.3 7.9 6.9 7.3
6.5 6.5 6.5 6.5 6.5 6.5 6.5 6.5 6.6 6.5 6.5 6.9 7.1 7.4 7.7 7.7 7.1 7.8 8.2 6.9 5.4 3.4 5.7 7.1 5.6 5.6 5.9 6.5 6.1 6.1 6.4 6.1 7.1 6.1 6.2 6.6 6.2 7.4 6.8 7.4 7.9 7.1 6.9 6.8 6.2 7.6 7.1 6.8 6.9
6.5 6.5 6.5 6.5 6.5 6.6 6.5 6.5 6.5 6.5 6.5 6.5 6.7 6.9 7.1 7.6 7.7 6.1 6.9 8.1 6.8 4.3 3.0 4.5 4.7 6.2 5.9 5.7 5.9 7.3 7.5 6.5 6.4 6.0 6.2 6.3 6.6 6.0 6.2 6.4 6.7 6.9 6.5 6.7 6.3 6.9 6.8 6.6 7.5
6.5 6.5 6.5 6.5 6.5 6.5 6.6 6.5 6.5 6.5 6.5 6.5 6.7 6.9 6.5 6.1 6.1 5.4 5.0 4.9 4.7 3.7 3.6 4.4 4.9 6.8 4.8 3.3 4.0 5.8 7.6 7.9 6.6 6.7 6.7 6.4 6.0 5.8 6.0 5.8 6.2 6.4 6.4 6.7 6.2 6.3 7.1 6.5 6.9
6.5 6.5 6.5 6.5 6.5 6.5 6.5 6.5 6.5 6.5 6.8 7.0 7.1 7.4 7.5 6.0 5.3 5.1 4.5 4.7 5.0 4.9 4.2 3.9 4.8 5.6 5.1 5.5 3.8 3.8 5.9 7.9 6.8 6.4 6.4 6.2 6.3 5.8 5.9 5.8 6.1 6.0 7.3 6.6 7.0 7.1 7.5 7.2 7.2
Wind_Speed
4 3 1 2 1 3 4 4 2 13 9 7 11 4 6 7 3 7 9 6 13 13 13 12 11 10 10 9 11 10 10 11 10 12 12 12 13 13 14 15 16 17 17 17 19 18 19 18 17
6 2 1 2 2 4 4 2 13 7 12 18 4 10 4 5 5 11 8 12 14 14 13 12 11 11 11 10 11 10 10 10 10 11 12 12 12 13 14 14 16 17 17 17 18 18 18 18 16
6 3 2 3 2 4 6 5 6 6 14 14 6 5 3 4 8 11 10 14 14 12 11 12 10 10 11 10 12 10 10 10 10 11 12 12 13 13 14 15 15 15 16 15 15 14 13 12 14
2 1 3 2 2 3 4 7 7 12 12 3 10 7 6 3 10 7 16 16 12 12 11 11 10 9 9 11 13 12 11 9 10 10 11 12 13 14 14 15 15 15 15 13 11 10 10 8 6
1 0 2 3 3 3 4 7 5 11 11 7 1 6 6 4 9 17 15 13 12 11 10 12 10 10 10 11 11 10 11 10 10 10 11 12 13 14 15 15 15 15 14 12 12 11 13 13 13
1 0 3 5 5 1 4 4 6 7 8 9 8 9 6 7 16 14 13 12 13 11 11 10 9 10 10 10 11 11 11 11 11 11 12 12 13 15 15 15 15 14 13 13 15 17 15 12 10
1 1 1 7 8 6 4 6 8 6 9 5 12 8 7 12 14 13 12 11 12 11 10 10 9 10 11 10 11 11 11 11 12 12 11 12 13 13 14 15 14 14 13 13 13 12 10 10 11
1 2 3 5 10 5 7 5 5 10 6 11 10 8 9 14 15 14 12 11 10 9 9 9 9 10 8 9 11 12 12 11 13 12 12 13 14 13 14 14 14 12 11 11 12 10 10 9 10
3 2 2 5 13 9 10 7 8 7 13 7 3 12 16 18 17 15 13 11 10 7 7 7 8 8 8 9 12 13 13 12 14 13 12 13 13 13 12 14 13 11 9 10 9 9 9 8 8
3 2 1 3 10 13 14 13 11 9 12 10 14 18 18 19 17 16 14 12 10 10 8 7 8 8 7 9 10 10 11 11 10 10 10 11 13 12 14 14 13 10 10 9 8 7 6 4 5
2 2 1 5 11 17 17 11 7 16 7 10 22 24 19 19 16 15 12 12 10 11 8 8 8 8 6 8 8 8 8 10 10 8 9 10 11 11 10 9 9 9 7 5 5 4 3 2 1
3 5 3 10 18 13 13 11 12 6 1 15 22 23 21 19 16 14 13 11 11 10 9 8 9 8 6 7 7 8 8 8 8 7 7 9 9 9 8 8 7 6 4 4 4 4 5 4 3
4 2 7 16 15 15 10 11 11 6 14 19 20 19 19 16 15 12 11 10 9 10 9 9 9 8 7 7 7 7 6 6 7 6 7 8 8 7 6 6 5 6 3 4 4 5 6 5 3
1 6 13 17 16 14 13 11 5 3 17 19 19 18 17 15 15 13 12 12 10 10 10 9 9 9 8 6 6 5 5 6 6 6 6 6 6 5 5 5 5 5 4 3 4 5 5 6 6
7 16 13 14 13 7 16 6 5 9 16 19 18 16 15 13 13 12 13 12 11 10 10 10 9 9 9 7 6 5 4 5 5 6 6 5 4 4 3 5 5 4 3 3 3 4 5 5 4
3 9 10 10 12 1 1 10 12 16 16 19 18 16 14 14 14 12 12 11 11 10 10 10 8 8 9 7 6 5 3 4 5 5 5 3 2 3 3 4 5 4 4 3 4 4 4 3 2
2 7 5 12 12 9 5 2 8 13 19 20 17 16 15 13 13 13 13 12 12 11 10 10 9 8 7 6 5 4 4 3 4 5 4 4 3 3 4 3 4 3 4 5 3 2 2 2 2
6 5 7 11 12 7 12 6 10 15 19 20 18 16 16 16 17 15 14 13 12 11 11 10 8 7 6 4 5 3 5 4 3 4 4 3 3 4 4 3 3 1 1 2 2 2 2 2 3
10 7 5 3 10 12 7 8 12 14 16 16 17 17 16 16 16 15 15 14 13 12 11 11 11 8 6 5 6 4 5 4 3 4 3 4 4 3 2 4 4 2 2 2 2 2 3 3 4
7 8 6 3 14 5 9 1 3 9 16 17 18 19 18 16 15 15 16 15 15 14 12 11 11 9 8 7 6 3 4 3 3 4 4 3 3 3 2 4 4 2 3 1 3 3 2 3 4
4 6 7 5 13 12 11 3 7 9 9 15 18 19 18 20 18 16 16 16 14 14 13 12 11 10 10 8 5 4 5 4 4 4 4 5 4 3 2 2 3 2 2 2 2 2 3 4 3
8 8 5 12 10 4 7 1 6 11 14 14 19 19 20 19 18 17 18 17 16 15 13 13 11 11 10 9 7 8 6 4 4 5 4 5 5 4 5 3 3 2 1 3 3 2 3 2 4
2 5 6 9 5 9 6 7 4 10 15 19 19 17 19 19 20 19 20 19 17 15 14 13 12 11 11 11 9 7 5 3 3 4 5 4 6 6 6 5 4 4 3 2 2 3 2 3 3
6 8 8 5 4 4 11 6 6 8 21 17 17 16 14 17 19 18 14 11 14 13 12 12 12 11 10 10 10 9 7 5 5 5 5 4 4 6 7 6 5 6 3 3 3 3 3 3 3
7 8 3 6 5 3 3 8 3 10 4 11 16 19 16 15 16 15 14 15 14 14 12 8 13 13 12 12 11 9 7 6 6 5 4 6 5 5 7 7 7 6 4 3 3 3 3 3 2
12 13 5 8 6 9 5 9 2 2 5 10 15 17 17 18 16 17 17 14 13 10 11 12 13 14 13 12 12 9 8 5 4 3 3 4 4 3 6 9 8 7 6 5 4 4 3 2 2
6 10 5 3 1 7 4 3 4 4 1 3 7 14 17 17 16 16 16 16 16 11 11 13 11 11 11 12 10 9 8 7 6 4 3 3 3 4 5 6 6 8 8 6 5 4 5 3 3
6 11 9 3 8 10 5 4 3 9 6 6 9 9 7 8 12 11 12 13 12 11 6 2 3 9 7 8 8 8 8 7 5 4 4 4 3 4 4 5 5 5 7 8 7 5 5 5 4
6 6 1 5 3 9 7 5 1 5 11 9 6 7 6 6 7 7 7 7 7 8 10 7 7 9 8 6 3 5 8 7 5 5 4 3 3 5 5 5 4 7 8 9 7 6 6 7 6
2 4 4 9 7 0 3 3 2 2 8 10 10 8 6 5 4 5 5 5 10 11 9 8 6 8 8 10 5 3 11 8 7 6 5 4 4 6 5 5 6 7 5 5 7 7 7 8 8
Wind_Direction
146 136 296 266 53 89 73 68 92 133 132 145 150 152 100 49 29 107 133 145 141 138 136 134 117 114 107 104 105 109 106 93 96 107 104 100 94 96 106 105 103 110 105 95 94 94 93 92 89
138 176 254 3 44 104 83 73 125 143 143 154 156 147 89 77 70 121 134 147 142 135 134 129 126 115 111 102 98 98 109 101 101 103 101 104 105 109 106 105 102 96 95 94 95 93 91 87 90
156 357 27 31 83 103 112 120 117 115 146 150 127 59 57 70 122 136 140 142 138 129 125 120 119 115 110 113 100 99 103 107 106 104 105 112 108 106 112 107 106 101 96 95 96 100 96 95 95
153 17 66 80 147 72 95 137 116 119 150 127 122 75 83 63 130 143 144 140 134 127 125 122 121 112 103 93 102 98 100 104 105 111 113 113 109 111 115 110 106 98 92 90 93 101 104 93 109
156 64 72 136 221 112 88 140 134 139 157 156 118 91 90 63 117 139 142 141 133 129 126 120 120 112 102 98 98 97 101 104 109 109 108 103 104 105 106 107 106 101 92 79 72 92 95 86 95
35 102 180 155 168 92 119 115 131 127 153 150 101 102 99 121 137 144 143 137 133 128 122 119 117 109 107 102 102 102 97 98 99 103 98 100 104 103 108 111 112 108 96 87 82 93 93 93 94
251 247 94 141 143 151 172 151 159 138 141 132 134 107 118 148 141 144 142 133 133 126 122 121 121 113 107 108 106 105 103 98 100 100 97 96 98 101 103 109 109 102 94 88 80 83 95 93 98
256 280 117 145 165 137 147 167 158 156 104 112 141 145 163 158 147 143 140 132 130 131 123 113 112 109 109 118 119 112 107 103 102 94 88 91 95 99 99 100 99 99 92 83 76 79 105 99 101
205 302 148 165 163 141 158 148 142 132 135 83 130 145 137 144 147 144 141 140 136 136 133 126 117 111 105 111 99 112 108 103 95 92 80 89 96 96 102 91 99 99 98 89 82 78 89 102 104
234 272 254 169 158 149 161 155 136 143 125 95 107 116 136 148 155 155 157 152 153 145 149 135 132 126 104 102 99 98 102 99 94 92 93 94 97 92 91 92 97 96 90 78 71 74 71 87 91
189 257 318 153 150 142 145 139 138 144 155 168 152 141 151 156 161 163 165 162 160 156 152 152 142 134 111 116 113 113 115 112 100 92 102 95 95 94 96 95 91 101 81 76 69 51 39 17 21
257 258 236 150 143 137 142 133 138 149 153 148 149 145 154 162 163 169 169 165 162 165 155 153 148 135 115 121 119 119 126 120 110 102 111 108 103 96 95 91 91 83 84 70 28 12 347 311 265
233 11 147 147 144 134 125 132 120 88 124 139 145 151 158 160 161 173 174 166 170 170 160 159 153 144 137 131 121 120 131 122 111 113 115 111 104 96 93 90 90 85 67 58 27 18 25 18 37
287 148 133 149 137 139 135 129 105 119 138 146 153 159 164 166 168 171 179 175 178 170 164 159 160 156 151 144 135 126 134 121 122 122 122 118 103 105 91 88 91 99 98 66 33 34 37 51 72
134 125 127 152 139 135 116 119 135 150 160 158 166 165 166 172 174 182 179 181 177 175 165 165 162 167 163 161 156 145 140 123 126 140 140 119 96 99 101 101 102 103 95 84 74 56 67 72 74
153 143 149 170 141 157 214 184 170 155 171 172 173 171 174 180 186 178 178 183 171 174 176 166 167 173 174 166 170 157 147 134 114 146 148 148 156 111 110 102 92 105 118 83 80 50 46 64 57
52 157 177 172 192 139 202 309 178 162 178 180 180 178 181 184 194 192 185 184 175 179 181 175 175 178 185 172 180 175 151 147 132 130 152 137 151 151 116 105 89 91 90 57 54 77 28 34 359
168 178 180 168 187 144 192 114 148 166 192 182 182 183 186 193 199 197 192 189 183 183 185 185 184 182 190 198 192 174 156 142 158 150 147 160 164 161 132 116 106 110 102 99 73 63 65 359 352
145 164 162 226 171 181 141 130 155 173 187 187 189 190 189 198 196 194 198 192 192 188 185 189 187 181 180 176 175 174 176 162 173 182 163 177 193 162 179 124 125 90 114 98 81 90 35 57 12
143 162 170 148 154 99 103 139 300 207 194 199 195 196 201 195 195 197 193 194 197 193 193 189 195 182 185 181 181 181 169 169 180 179 176 205 199 158 137 149 134 95 121 99 55 29 40 51 29
168 183 160 146 104 68 80 328 262 214 189 202 211 205 206 199 197 196 196 196 195 197 192 192 195 188 182 183 166 135 131 134 165 176 198 205 196 184 189 168 155 154 216 140 95 69 38 52 66
195 198 145 140 162 146 204 166 255 212 209 208 206 208 207 207 202 198 198 197 200 199 191 191 192 186 187 180 187 186 188 176 177 174 174 184 189 195 187 194 181 170 157 150 126 96 56 21 48
223 164 170 157 123 136 165 108 244 204 207 215 206 207 208 205 198 198 202 201 198 190 191 190 193 189 194 196 205 208 204 188 154 164 164 178 179 193 189 178 173 168 185 168 153 147 82 78 47
156 101 97 112 149 217 185 198 216 193 224 217 209 207 204 203 199 200 195 188 194 187 188 190 191 198 199 200 208 212 218 187 176 177 189 195 187 185 188 179 180 184 187 186 182 151 136 103 93
189 170 144 180 181 198 167 197 253 188 211 240 222 201 202 197 196 196 189 184 183 184 182 178 196 204 205 207 209 213 217 220 216 184 197 190 200 190 181 180 187 190 195 209 197 206 157 159 126
196 201 191 198 187 204 145 212 175 215 286 256 232 212 194 194 194 197 192 173 155 154 194 203 209 211 206 208 215 220 219 229 232 221 190 208 218 211 197 189 192 194 198 200 205 218 213 186 197
167 207 213 109 74 203 168 207 182 180 120 72 138 174 189 186 186 196 192 189 178 167 201 210 209 219 210 213 209 216 225 216 223 216 221 229 224 223 231 220 207 188 201 208 198 223 223 209 234
205 167 187 210 186 212 188 244 212 199 173 122 136 140 144 160 169 176 195 190 186 174 140 171 201 226 212 204 213 218 217 217 207 196 216 231 211 202 229 234 231 230 219 213 210 217 215 216 227
163 188 137 182 263 217 210 212 32 172 172 154 128 116 110 103 135 145 161 171 162 149 163 185 179 210 181 154 145 236 249 224 204 216 211 240 241 208 218 229 236 241 217 212 215 221 218 222 223
113 148 194 208 184 91 265 177 352 233 163 163 150 149 141 125 117 103 137 177 190 181 170 164 163 176 172 178 172 297 267 241 228 226 225 216 217 224 228 233 232 236 249 236 222 221 226 231 223